SL-16 DEB, 22425

Orbit data source: Space-Track

SL-16 DEB, 22425 is space debris in LEO originally from a launch on Fri, 25 Dec 1992 UTC launched from the Tyuratam Missile And Space Complex (TTMTR). Debris objects in space refer to the collection of defunct objects orbiting the Earth. Examples of debris include non-operational satellites, rocket bodies, and fragments generated from explosions, collisions, or faulty payload assembly.

Loading next visibility...
Identifier
22425, 1992-093DS
Orbit
LEO
Country
Flag of CISCIS
Related business
Manufacturer
Unknown
Mission
Spacecraft
Bus & Motor
Unknown
Mass
Unknown
Launch date (UTC)
1992-12-25 (33 years ago)
Launch vehicle
Unknown
Launch site
Tyuratam Missile And Space Complex (TTMTR)
Object type
Payload
Rocket body
Debris
Shape & HBR
Unknown shape, 0.1 m
Radar Cross Section
Small (<0.1 m²)

Expand to show TLE details & history
Last TLE update: 12 hours ago

TLE from 12 hours ago
0 SL-16 DEB
1 22425U 92093DS  25304.03207558  .00000402  00000-0  31416-3 0  9996
2 22425  71.1766 313.0887 0113692 220.9069 169.7437 13.94985493666500
Epoch: 2025-10-31T00:46Z
TLE epoch observation values (Epoch: 2025-10-31T00:46:11.330Z)
Latitude
29.11887°
Longitude
-87.15235°
Altitude
995.894 km
Speed
7.315 km/s
True Right ascension
21h 35m 54s
True Declination
28° 58' 39"
Sunlit
Object was in daylight at epoch
Visualization orbit readout
Latitude
Unknown
Longitude
Unknown
Altitude
Unknown
Speed
Unknown
Apparent Right ascension
Unknown
Apparent Declination
Unknown
Sunlit
N/A
Visualization observer readout
Local Sidereal Time
08:13:09
Azimuth
Unknown
Elevation
Unknown
Doppler factor
Unknown
Orbital elements
Apogee altitude
991.989 km
Perigee altitude
826.288 km
Semi-major axis
7,287.276 km
Eccentricity
0.01137
Inclination
71.1766°
RAAN
313.0887°
Arg. of periapsis
220.9069°
True anomaly
169.97247°
Mean anomaly
169.7437°
Eccentric anomaly
169.8584°
Mean motion
3.48896 °/min
Orbital period
103.18 mins
BSTAR
0.00031416
Loading maneuver chart data...
Computing Atmospheric mass density...
Loading historical data...
Loading historical data...
Loading historical data...
Loading historical data...
Loading historical data...
Loading historical data...
Loading historical data...

Documentation

Showing up to 5 results
|